| time (UTC) | temp F | wind direction | speed MPH | gust MPH | rain 1hr in | rain 24hr in | rain mn in | humidity % | barometer mb |
| 20260507092522 | 54 | 155 | 2.0 | 4.0 | 0.00 | 0.00 | 0.00 | 87 | 1020.3 |
| 20260507092022 | 54 | 141 | 1.0 | 3.0 | 0.00 | 0.00 | 0.00 | 87 | 1020.3 |
| 20260507091543 | 53 | 191 | 0.0 | 3.0 | 0.00 | 0.00 | 0.00 | 87 | 1020.4 |
| 20260507091022 | 53 | 200 | 1.0 | 3.0 | 0.00 | 0.00 | 0.00 | 87 | 1020.3 |
| 20260507090522 | 53 | 217 | 1.0 | 2.0 | 0.00 | 0.00 | 0.00 | 87 | 1020.3 |
| 20260507090041 | 53 | 147 | 1.0 | 4.0 | 0.00 | 0.00 | 0.00 | 87 | 1020.2 |
| 20260507085522 | 54 | 200 | 1.0 | 5.0 | 0.00 | 0.00 | 0.00 | 88 | 1020.3 |
| 20260507085022 | 54 | 154 | 3.0 | 6.0 | 0.00 | 0.00 | 0.00 | 88 | 1020.3 |
| 20260507084544 | 54 | 179 | 3.0 | 6.0 | 0.00 | 0.00 | 0.00 | 88 | 1020.2 |
| 20260507084022 | 54 | 169 | 2.0 | 5.0 | 0.00 | 0.00 | 0.00 | 88 | 1020.2 |
| 20260507083524 | 54 | 132 | 2.0 | 4.0 | 0.00 | 0.00 | 0.00 | 88 | 1020.1 |
| 20260507083040 | 54 | 149 | 2.0 | 5.0 | 0.00 | 0.00 | 0.00 | 88 | 1020.2 |
| 20260507082521 | 54 | 178 | 2.0 | 6.0 | 0.00 | 0.00 | 0.00 | 88 | 1020.1 |
| 20260507082025 | 54 | 138 | 3.0 | 6.0 | 0.00 | 0.00 | 0.00 | 89 | 1020.1 |
| 20260507081537 | 54 | 132 | 2.0 | 6.0 | 0.00 | 0.00 | 0.00 | 89 | 1020.1 |
| 20260507081022 | 54 | 139 | 2.0 | 4.0 | 0.00 | 0.00 | 0.00 | 89 | 1020.2 |
| 20260507080524 | 54 | 143 | 1.0 | 5.0 | 0.00 | 0.00 | 0.00 | 89 | 1020.2 |
| 20260507080046 | 54 | 128 | 2.0 | 5.0 | 0.00 | 0.00 | 0.00 | 89 | 1020.1 |
| 20260507075522 | 54 | 168 | 2.0 | 5.0 | 0.00 | 0.00 | 0.00 | 89 | 1020.2 |
| 20260507075022 | 54 | 151 | 3.0 | 5.0 | 0.00 | 0.00 | 0.00 | 89 | 1020.1 |
| 20260507074542 | 54 | 127 | 3.0 | 5.0 | 0.00 | 0.00 | 0.00 | 89 | 1020.0 |
| 20260507074024 | 54 | 121 | 3.0 | 4.0 | 0.00 | 0.00 | 0.00 | 89 | 1020.0 |
| 20260507073523 | 54 | 127 | 1.0 | 6.0 | 0.00 | 0.00 | 0.00 | 89 | 1020.0 |
| 20260507073042 | 54 | 217 | 2.0 | 6.0 | 0.00 | 0.00 | 0.00 | 89 | 1020.1 |
| 20260507072522 | 54 | 126 | 3.0 | 5.0 | 0.00 | 0.00 | 0.00 | 89 | 1020.1 |
| 20260507072021 | 54 | 139 | 2.0 | 5.0 | 0.00 | 0.00 | 0.00 | 89 | 1020.1 |
| 20260507071601 | 54 | 150 | 2.0 | 5.0 | 0.00 | 0.00 | 0.00 | 89 | 1020.0 |
| 20260507071022 | 54 | 133 | 2.0 | 5.0 | 0.00 | 0.00 | 0.00 | 89 | 1020.0 |
| 20260507070523 | 54 | 145 | 2.0 | 5.0 | 0.00 | 0.00 | 0.00 | 89 | 1020.0 |
| 20260507070042 | 54 | 150 | 3.0 | 6.0 | 0.00 | 0.00 | 0.00 | 89 | 1019.9 |
| 20260507065522 | 54 | 116 | 3.0 | 6.0 | 0.00 | 0.00 | 0.00 | 89 | 1019.9 |
| 20260507065025 | 54 | 165 | 3.0 | 5.0 | 0.00 | 0.00 | 0.00 | 89 | 1019.9 |
| 20260507064541 | 54 | 125 | 3.0 | 5.0 | 0.00 | 0.00 | 0.00 | 89 | 1019.9 |
| 20260507064024 | 54 | 176 | 2.0 | 7.0 | 0.00 | 0.00 | 0.00 | 88 | 1019.9 |
| 20260507063521 | 54 | 139 | 2.0 | 7.0 | 0.00 | 0.00 | 0.00 | 88 | 1019.8 |
| 20260507063044 | 54 | 149 | 3.0 | 7.0 | 0.00 | 0.00 | 0.00 | 88 | 1019.9 |
| 20260507062524 | 54 | 156 | 3.0 | 7.0 | 0.00 | 0.00 | 0.00 | 88 | 1019.7 |
| 20260507062022 | 54 | 115 | 2.0 | 5.0 | 0.00 | 0.00 | 0.00 | 88 | 1019.8 |
| 20260507061539 | 54 | 168 | 2.0 | 6.0 | 0.00 | 0.00 | 0.00 | 88 | 1019.8 |
| 20260507061022 | 54 | 181 | 2.0 | 7.0 | 0.00 | 0.00 | 0.00 | 88 | 1019.8 |
| 20260507060522 | 54 | 166 | 3.0 | 8.0 | 0.00 | 0.00 | 0.00 | 88 | 1019.7 |
| 20260507060047 | 54 | 118 | 1.0 | 8.0 | 0.00 | 0.00 | 0.00 | 88 | 1019.8 |
| 20260507055522 | 54 | 158 | 4.0 | 8.0 | 0.00 | 0.00 | 0.00 | 88 | 1019.6 |
| 20260507055023 | 54 | 238 | 3.0 | 8.0 | 0.00 | 0.00 | 0.00 | 88 | 1019.6 |
| 20260507054543 | 54 | 200 | 3.0 | 8.0 | 0.00 | 0.00 | 0.00 | 88 | 1019.7 |
| 20260507054022 | 54 | 118 | 2.0 | 8.0 | 0.00 | 0.00 | 0.00 | 87 | 1019.5 |
| 20260507053522 | 54 | 147 | 1.0 | 6.0 | 0.00 | 0.00 | 0.00 | 88 | 1019.4 |
| 20260507053110 | 54 | 0 | 2.0 | 6.0 | 0.00 | 0.00 | 0.00 | 88 | 1019.5 |
| 20260507052522 | 54 | 221 | 3.0 | 8.0 | 0.00 | 0.00 | 0.00 | 88 | 1019.4 |
| 20260507052022 | 54 | 179 | 3.0 | 8.0 | 0.00 | 0.00 | 0.00 | 87 | 1019.4 |
| 20260507051544 | 54 | 160 | 3.0 | 7.0 | 0.00 | 0.00 | 0.00 | 87 | 1019.5 |
| 20260507051021 | 54 | 156 | 3.0 | 10.0 | 0.00 | 0.00 | 0.00 | 87 | 1019.4 |
| 20260507050521 | 54 | 113 | 3.0 | 10.0 | 0.00 | 0.00 | 0.00 | 88 | 1019.4 |
| 20260507050044 | 54 | 143 | 5.0 | 11.0 | 0.00 | 0.00 | 0.00 | 87 | 1019.4 |
| 20260507045522 | 54 | 160 | 3.0 | 11.0 | 0.00 | 0.00 | 0.00 | 87 | 1019.4 |
| 20260507045022 | 54 | 135 | 4.0 | 8.0 | 0.00 | 0.00 | 0.00 | 87 | 1019.5 |
| 20260507044541 | 54 | 127 | 3.0 | 7.0 | 0.00 | 0.00 | 0.00 | 87 | 1019.5 |
| 20260507044023 | 54 | 187 | 3.0 | 7.0 | 0.00 | 0.00 | 0.00 | 86 | 1019.6 |
| 20260507043521 | 55 | 206 | 2.0 | 7.0 | 0.00 | 0.00 | 0.00 | 87 | 1019.6 |
| 20260507043042 | 55 | 167 | 3.0 | 7.0 | 0.00 | 0.00 | 0.00 | 87 | 1019.6 |
| 20260507042523 | 55 | 150 | 3.0 | 7.0 | 0.00 | 0.00 | 0.00 | 87 | 1019.6 |
| 20260507042022 | 55 | 207 | 1.0 | 5.0 | 0.00 | 0.00 | 0.00 | 86 | 1019.6 |
| 20260507041543 | 55 | 153 | 2.0 | 5.0 | 0.00 | 0.00 | 0.00 | 87 | 1019.5 |
| 20260507041022 | 55 | 192 | 3.0 | 6.0 | 0.00 | 0.00 | 0.00 | 86 | 1019.5 |
| 20260507040522 | 55 | 133 | 3.0 | 6.0 | 0.00 | 0.00 | 0.00 | 86 | 1019.4 |
| 20260507040043 | 55 | 177 | 2.0 | 6.0 | 0.00 | 0.00 | 0.00 | 86 | 1019.5 |
| 20260507035521 | 55 | 164 | 3.0 | 9.0 | 0.00 | 0.00 | 0.00 | 86 | 1019.5 |
| 20260507035022 | 55 | 140 | 4.0 | 9.0 | 0.00 | 0.00 | 0.00 | 86 | 1019.5 |
| 20260507034541 | 55 | 130 | 3.0 | 9.0 | 0.00 | 0.00 | 0.00 | 86 | 1019.4 |
| 20260507034022 | 55 | 165 | 3.0 | 9.0 | 0.00 | 0.00 | 0.00 | 86 | 1019.5 |
| 20260507033521 | 55 | 180 | 3.0 | 9.0 | 0.00 | 0.00 | 0.00 | 86 | 1019.5 |
| 20260507033044 | 55 | 124 | 3.0 | 9.0 | 0.00 | 0.00 | 0.00 | 86 | 1019.5 |
| 20260507032522 | 55 | 204 | 2.0 | 6.0 | 0.00 | 0.00 | 0.00 | 86 | 1019.5 |
| 20260507032022 | 55 | 160 | 2.0 | 6.0 | 0.00 | 0.00 | 0.00 | 87 | 1019.5 |
| 20260507031544 | 55 | 134 | 2.0 | 6.0 | 0.00 | 0.00 | 0.00 | 87 | 1019.5 |
| 20260507031024 | 55 | 184 | 2.0 | 6.0 | 0.00 | 0.00 | 0.00 | 86 | 1019.5 |
| 20260507030522 | 55 | 171 | 2.0 | 6.0 | 0.00 | 0.00 | 0.00 | 86 | 1019.4 |
| 20260507030042 | 55 | 136 | 2.0 | 10.0 | 0.00 | 0.00 | 0.00 | 86 | 1019.4 |
| 20260507025521 | 55 | 139 | 4.0 | 10.0 | 0.00 | 0.00 | 0.00 | 86 | 1019.5 |
| 20260507025022 | 55 | 114 | 4.0 | 8.0 | 0.00 | 0.00 | 0.00 | 86 | 1019.6 |
| 20260507024542 | 55 | 153 | 4.0 | 9.0 | 0.00 | 0.00 | 0.00 | 86 | 1019.5 |
| 20260507024021 | 55 | 135 | 3.0 | 9.0 | 0.00 | 0.00 | 0.00 | 86 | 1019.4 |
| 20260507023522 | 55 | 191 | 3.0 | 6.0 | 0.00 | 0.00 | 0.00 | 86 | 1019.3 |
| 20260507023047 | 55 | 157 | 3.0 | 9.0 | 0.00 | 0.00 | 0.00 | 85 | 1019.3 |
| 20260507022523 | 55 | 120 | 2.0 | 9.0 | 0.00 | 0.00 | 0.00 | 85 | 1019.3 |
| 20260507022023 | 55 | 169 | 4.0 | 9.0 | 0.00 | 0.00 | 0.00 | 85 | 1019.3 |
| 20260507021538 | 56 | 188 | 4.0 | 9.0 | 0.00 | 0.00 | 0.00 | 84 | 1019.3 |
| 20260507021026 | 56 | 153 | 4.0 | 9.0 | 0.00 | 0.00 | 0.00 | 85 | 1019.4 |
| 20260507020522 | 56 | 133 | 4.0 | 8.0 | 0.00 | 0.00 | 0.00 | 84 | 1019.4 |
| 20260507020043 | 56 | 134 | 3.0 | 8.0 | 0.00 | 0.00 | 0.00 | 84 | 1019.5 |
| 20260507015522 | 56 | 151 | 3.0 | 8.0 | 0.00 | 0.00 | 0.00 | 84 | 1019.5 |
| 20260507015024 | 56 | 176 | 2.0 | 7.0 | 0.00 | 0.00 | 0.00 | 84 | 1019.5 |
| 20260507014549 | 56 | 197 | 3.0 | 8.0 | 0.00 | 0.00 | 0.00 | 84 | 1019.5 |
| 20260507014022 | 56 | 214 | 3.0 | 8.0 | 0.00 | 0.00 | 0.00 | 83 | 1019.5 |
| 20260507013522 | 56 | 122 | 3.0 | 7.0 | 0.00 | 0.00 | 0.00 | 83 | 1019.5 |
| 20260507013038 | 56 | 149 | 3.0 | 7.0 | 0.00 | 0.00 | 0.00 | 83 | 1019.5 |
| 20260507012523 | 56 | 114 | 2.0 | 5.0 | 0.00 | 0.00 | 0.00 | 83 | 1019.5 |
| 20260507012023 | 56 | 130 | 2.0 | 6.0 | 0.00 | 0.00 | 0.00 | 82 | 1019.6 |
| 20260507011540 | 56 | 129 | 2.0 | 9.0 | 0.00 | 0.00 | 0.00 | 82 | 1019.6 |
| 20260507011022 | 57 | 167 | 3.0 | 9.0 | 0.00 | 0.00 | 0.00 | 82 | 1019.5 |
| 20260507010522 | 57 | 176 | 4.0 | 9.0 | 0.00 | 0.00 | 0.00 | 81 | 1019.5 |
| 20260507010037 | 57 | 138 | 3.0 | 6.0 | 0.00 | 0.00 | 0.00 | 81 | 1019.5 |
| 20260507005522 | 57 | 139 | 3.0 | 8.0 | 0.00 | 0.00 | 0.00 | 82 | 1019.6 |
| 20260507005022 | 56 | 104 | 3.0 | 8.0 | 0.00 | 0.00 | 0.00 | 82 | 1019.6 |
| 20260507004539 | 57 | 138 | 3.0 | 8.0 | 0.00 | 0.00 | 0.00 | 82 | 1019.7 |
| 20260507004022 | 57 | 141 | 3.0 | 8.0 | 0.00 | 0.00 | 0.00 | 82 | 1019.7 |
| 20260507003522 | 57 | 115 | 4.0 | 13.0 | 0.00 | 0.00 | 0.00 | 83 | 1019.6 |
| 20260507003041 | 57 | 151 | 6.0 | 13.0 | 0.00 | 0.00 | 0.00 | 81 | 1019.6 |
| 20260507002522 | 57 | 188 | 5.0 | 10.0 | 0.00 | 0.00 | 0.00 | 82 | 1019.6 |
| 20260507002028 | 57 | 271 | 4.0 | 11.0 | 0.00 | 0.00 | 0.00 | 82 | 1019.7 |
| 20260507001548 | 57 | 148 | 6.0 | 11.0 | 0.00 | 0.00 | 0.00 | 81 | 1019.6 |
| 20260507001021 | 57 | 147 | 5.0 | 9.0 | 0.00 | 0.00 | 0.00 | 81 | 1019.6 |
| 20260507000522 | 57 | 134 | 2.0 | 8.0 | 0.00 | 0.00 | 0.00 | 81 | 1019.6 |
| 20260507000040 | 57 | 117 | 3.0 | 8.0 | 0.00 | 0.00 | 0.00 | 81 | 1019.7 |
| 20260506235522 | 57 | 131 | 3.0 | 10.0 | 0.00 | 0.00 | 0.00 | 81 | 1019.6 |
| 20260506235021 | 57 | 200 | 4.0 | 10.0 | 0.00 | 0.00 | 0.00 | 81 | 1019.6 |
| 20260506234537 | 57 | 136 | 4.0 | 10.0 | 0.00 | 0.00 | 0.00 | 82 | 1019.5 |
| 20260506234022 | 57 | 132 | 4.0 | 11.0 | 0.00 | 0.00 | 0.00 | 81 | 1019.6 |
| 20260506233521 | 57 | 164 | 5.0 | 11.0 | 0.00 | 0.00 | 0.00 | 81 | 1019.6 |
| 20260506233052 | 57 | 195 | 4.0 | 11.0 | 0.00 | 0.00 | 0.00 | 80 | 1019.6 |
| 20260506232521 | 57 | 157 | 4.0 | 11.0 | 0.00 | 0.00 | 0.00 | 80 | 1019.6 |
| 20260506232021 | 57 | 119 | 5.0 | 11.0 | 0.00 | 0.00 | 0.00 | 79 | 1019.7 |
| 20260506231538 | 58 | 161 | 4.0 | 8.0 | 0.00 | 0.00 | 0.00 | 80 | 1019.6 |
| 20260506231021 | 58 | 148 | 4.0 | 9.0 | 0.00 | 0.00 | 0.00 | 80 | 1019.6 |
| 20260506230521 | 58 | 143 | 4.0 | 9.0 | 0.00 | 0.00 | 0.00 | 80 | 1019.7 |
| 20260506230042 | 58 | 168 | 5.0 | 9.0 | 0.00 | 0.00 | 0.00 | 80 | 1019.7 |
| 20260506225524 | 58 | 148 | 4.0 | 9.0 | 0.00 | 0.00 | 0.00 | 80 | 1019.6 |
| 20260506225022 | 58 | 130 | 5.0 | 9.0 | 0.00 | 0.00 | 0.00 | 79 | 1019.7 |
| 20260506224542 | 58 | 146 | 4.0 | 9.0 | 0.00 | 0.00 | 0.00 | 79 | 1019.7 |
| 20260506224021 | 59 | 142 | 4.0 | 9.0 | 0.00 | 0.00 | 0.00 | 78 | 1019.8 |
| 20260506223521 | 59 | 165 | 4.0 | 9.0 | 0.00 | 0.00 | 0.00 | 79 | 1019.8 |
| 20260506223040 | 59 | 141 | 4.0 | 9.0 | 0.00 | 0.00 | 0.00 | 79 | 1019.7 |
| 20260506222526 | 59 | 184 | 5.0 | 9.0 | 0.00 | 0.00 | 0.00 | 79 | 1019.8 |
| 20260506222024 | 59 | 198 | 4.0 | 9.0 | 0.00 | 0.00 | 0.00 | 78 | 1019.9 |
| 20260506221538 | 59 | 110 | 5.0 | 9.0 | 0.00 | 0.00 | 0.00 | 77 | 1019.8 |
| 20260506221021 | 60 | 158 | 4.0 | 11.0 | 0.00 | 0.00 | 0.00 | 77 | 1019.8 |
| 20260506220521 | 60 | 221 | 4.0 | 11.0 | 0.00 | 0.00 | 0.00 | 77 | 1019.9 |
| 20260506220046 | 61 | 156 | 4.0 | 7.0 | 0.00 | 0.00 | 0.00 | 76 | 1019.9 |
| 20260506215521 | 61 | 171 | 4.0 | 9.0 | 0.00 | 0.00 | 0.00 | 76 | 1019.8 |
| 20260506215021 | 61 | 172 | 4.0 | 9.0 | 0.00 | 0.00 | 0.00 | 76 | 1019.8 |
| 20260506214548 | 61 | 188 | 3.0 | 10.0 | 0.00 | 0.00 | 0.00 | 77 | 1019.8 |
| 20260506214020 | 61 | 136 | 4.0 | 10.0 | 0.00 | 0.00 | 0.00 | 76 | 1019.8 |
| 20260506213522 | 61 | 210 | 3.0 | 9.0 | 0.00 | 0.00 | 0.00 | 77 | 1019.7 |
| 20260506213041 | 60 | 148 | 3.0 | 7.0 | 0.00 | 0.00 | 0.00 | 78 | 1019.9 |
| 20260506212522 | 60 | 155 | 3.0 | 7.0 | 0.00 | 0.00 | 0.00 | 79 | 1019.9 |
| 20260506212022 | 60 | 145 | 3.0 | 7.0 | 0.00 | 0.00 | 0.00 | 78 | 1019.9 |
| 20260506211541 | 60 | 148 | 3.0 | 6.0 | 0.00 | 0.00 | 0.00 | 79 | 1019.9 |
| 20260506211022 | 60 | 131 | 3.0 | 6.0 | 0.00 | 0.00 | 0.00 | 77 | 1019.9 |
| 20260506210522 | 60 | 126 | 2.0 | 6.0 | 0.00 | 0.00 | 0.00 | 78 | 1020.0 |
| 20260506210041 | 60 | 131 | 2.0 | 5.0 | 0.00 | 0.00 | 0.00 | 79 | 1019.9 |
| 20260506205521 | 59 | 215 | 2.0 | 5.0 | 0.00 | 0.00 | 0.00 | 79 | 1019.9 |
| 20260506205023 | 59 | 141 | 2.0 | 5.0 | 0.00 | 0.00 | 0.00 | 78 | 1020.0 |
| 20260506204544 | 59 | 224 | 2.0 | 6.0 | 0.00 | 0.00 | 0.00 | 78 | 1020.1 |
| 20260506204022 | 59 | 119 | 2.0 | 6.0 | 0.00 | 0.00 | 0.00 | 79 | 1020.0 |
| 20260506203522 | 59 | 119 | 1.0 | 3.0 | 0.00 | 0.00 | 0.00 | 80 | 1019.9 |
| 20260506203037 | 58 | 134 | 1.0 | 4.0 | 0.00 | 0.00 | 0.00 | 81 | 1020.0 |
| 20260506202523 | 58 | 123 | 2.0 | 4.0 | 0.00 | 0.00 | 0.00 | 81 | 1019.9 |
| 20260506202022 | 58 | 113 | 2.0 | 5.0 | 0.00 | 0.00 | 0.00 | 80 | 1019.9 |
| 20260506201546 | 57 | 214 | 2.0 | 6.0 | 0.00 | 0.00 | 0.00 | 81 | 1019.9 |
| 20260506201022 | 57 | 152 | 3.0 | 6.0 | 0.00 | 0.00 | 0.00 | 82 | 1019.9 |
| 20260506200522 | 58 | 178 | 2.0 | 5.0 | 0.00 | 0.00 | 0.00 | 82 | 1019.8 |
| 20260506200044 | 57 | 128 | 2.0 | 5.0 | 0.00 | 0.00 | 0.00 | 82 | 1019.9 |
| 20260506195523 | 57 | 137 | 2.0 | 5.0 | 0.00 | 0.00 | 0.00 | 83 | 1019.9 |
| 20260506195023 | 57 | 134 | 1.0 | 4.0 | 0.00 | 0.00 | 0.00 | 83 | 1020.0 |
| 20260506194543 | 56 | 171 | 1.0 | 4.0 | 0.00 | 0.00 | 0.00 | 83 | 1020.0 |
| 20260506194022 | 56 | 130 | 2.0 | 6.0 | 0.00 | 0.00 | 0.00 | 83 | 1020.0 |
| 20260506193521 | 56 | 114 | 3.0 | 6.0 | 0.00 | 0.00 | 0.00 | 83 | 1020.0 |
| 20260506193040 | 56 | 134 | 2.0 | 6.0 | 0.00 | 0.00 | 0.00 | 83 | 1019.9 |
| 20260506192521 | 56 | 207 | 2.0 | 6.0 | 0.00 | 0.00 | 0.00 | 83 | 1019.9 |
| 20260506192021 | 56 | 182 | 2.0 | 6.0 | 0.00 | 0.00 | 0.00 | 85 | 1019.9 |
| 20260506191551 | 56 | 172 | 2.0 | 8.0 | 0.00 | 0.00 | 0.00 | 84 | 1019.8 |
| 20260506191025 | 56 | 181 | 2.0 | 8.0 | 0.00 | 0.00 | 0.00 | 84 | 1019.8 |
| 20260506190528 | 56 | 155 | 3.0 | 8.0 | 0.00 | 0.00 | 0.00 | 85 | 1019.8 |
| 20260506190037 | 56 | 209 | 4.0 | 8.0 | 0.00 | 0.00 | 0.00 | 84 | 1019.8 |
| 20260506185523 | 56 | 170 | 3.0 | 7.0 | 0.00 | 0.00 | 0.00 | 85 | 1019.8 |
| 20260506185024 | 56 | 174 | 3.0 | 7.0 | 0.00 | 0.00 | 0.00 | 85 | 1019.7 |
| 20260506184549 | 56 | 141 | 2.0 | 7.0 | 0.00 | 0.00 | 0.00 | 86 | 1019.6 |
| 20260506184024 | 56 | 179 | 3.0 | 6.0 | 0.00 | 0.00 | 0.00 | 86 | 1019.6 |
| 20260506183522 | 56 | 152 | 3.0 | 6.0 | 0.00 | 0.00 | 0.00 | 86 | 1019.6 |
| 20260506183043 | 55 | 162 | 3.0 | 6.0 | 0.00 | 0.00 | 0.00 | 87 | 1019.6 |
| 20260506182521 | 55 | 190 | 2.0 | 6.0 | 0.00 | 0.00 | 0.00 | 86 | 1019.7 |
| 20260506182022 | 55 | 147 | 2.0 | 8.0 | 0.00 | 0.00 | 0.00 | 87 | 1019.6 |
| 20260506181544 | 55 | 145 | 3.0 | 8.0 | 0.00 | 0.00 | 0.00 | 86 | 1019.7 |
| 20260506181023 | 55 | 188 | 5.0 | 10.0 | 0.00 | 0.00 | 0.00 | 85 | 1019.6 |
| 20260506180523 | 55 | 168 | 4.0 | 10.0 | 0.00 | 0.00 | 0.00 | 86 | 1019.6 |
| 20260506180048 | 56 | 123 | 4.0 | 7.0 | 0.00 | 0.00 | 0.00 | 86 | 1019.6 |
| 20260506175522 | 56 | 165 | 2.0 | 7.0 | 0.00 | 0.00 | 0.00 | 87 | 1019.5 |
| 20260506175024 | 56 | 200 | 3.0 | 10.0 | 0.00 | 0.00 | 0.00 | 88 | 1019.5 |
| 20260506174537 | 55 | 123 | 5.0 | 10.0 | 0.00 | 0.00 | 0.00 | 87 | 1019.5 |
| 20260506174022 | 55 | 157 | 3.0 | 9.0 | 0.00 | 0.00 | 0.00 | 87 | 1019.4 |
| 20260506173522 | 55 | 212 | 3.0 | 9.0 | 0.00 | 0.00 | 0.00 | 87 | 1019.4 |
| 20260506173041 | 55 | 150 | 4.0 | 7.0 | 0.00 | 0.00 | 0.00 | 87 | 1019.4 |
| 20260506172525 | 55 | 238 | 3.0 | 7.0 | 0.00 | 0.00 | 0.00 | 86 | 1019.4 |
| 20260506172021 | 55 | 141 | 1.0 | 7.0 | 0.00 | 0.00 | 0.00 | 86 | 1019.5 |
| 20260506171545 | 55 | 214 | 2.0 | 7.0 | 0.00 | 0.00 | 0.00 | 86 | 1019.4 |
| 20260506171024 | 55 | 141 | 2.0 | 8.0 | 0.00 | 0.00 | 0.00 | 86 | 1019.2 |
| 20260506170523 | 55 | 171 | 2.0 | 9.0 | 0.00 | 0.00 | 0.00 | 86 | 1019.3 |
| 20260506170043 | 54 | 115 | 4.0 | 9.0 | 0.00 | 0.00 | 0.00 | 86 | 1019.3 |
| 20260506165523 | 55 | 196 | 3.0 | 9.0 | 0.00 | 0.00 | 0.00 | 87 | 1019.2 |
| 20260506165024 | 55 | 129 | 3.0 | 9.0 | 0.00 | 0.00 | 0.00 | 87 | 1019.1 |
| 20260506164538 | 54 | 188 | 5.0 | 13.0 | 0.00 | 0.00 | 0.00 | 87 | 1019.2 |
| 20260506164023 | 54 | 207 | 5.0 | 13.0 | 0.00 | 0.00 | 0.00 | 88 | 1019.1 |
| 20260506163521 | 54 | 137 | 7.0 | 12.0 | 0.00 | 0.00 | 0.00 | 87 | 1019.1 |
| 20260506163039 | 54 | 132 | 8.0 | 12.0 | 0.00 | 0.00 | 0.00 | 87 | 1019.2 |
| 20260506162521 | 54 | 143 | 5.0 | 9.0 | 0.00 | 0.00 | 0.00 | 87 | 1019.2 |
| 20260506162022 | 54 | 141 | 2.0 | 6.0 | 0.00 | 0.00 | 0.00 | 87 | 1019.2 |
| 20260506161554 | 54 | 143 | 3.0 | 6.0 | 0.00 | 0.00 | 0.00 | 87 | 1019.2 |
| 20260506161026 | 54 | 127 | 3.0 | 6.0 | 0.00 | 0.00 | 0.00 | 87 | 1019.3 |
| 20260506160524 | 54 | 146 | 2.0 | 8.0 | 0.00 | 0.00 | 0.00 | 87 | 1019.3 |
| 20260506160046 | 54 | 120 | 3.0 | 8.0 | 0.00 | 0.00 | 0.00 | 87 | 1019.3 |
| 20260506155521 | 54 | 162 | 3.0 | 8.0 | 0.00 | 0.00 | 0.00 | 88 | 1019.3 |
| 20260506155024 | 54 | 133 | 3.0 | 7.0 | 0.00 | 0.00 | 0.00 | 87 | 1019.2 |
| 20260506154548 | 54 | 122 | 3.0 | 7.0 | 0.00 | 0.00 | 0.00 | 88 | 1019.3 |
| 20260506154024 | 54 | 197 | 3.0 | 7.0 | 0.00 | 0.00 | 0.00 | 88 | 1019.3 |
| 20260506153523 | 54 | 208 | 4.0 | 9.0 | 0.00 | 0.00 | 0.00 | 88 | 1019.4 |
| 20260506153041 | 53 | 142 | 4.0 | 9.0 | 0.00 | 0.00 | 0.00 | 88 | 1019.3 |
| 20260506152521 | 53 | 184 | 5.0 | 9.0 | 0.00 | 0.00 | 0.00 | 88 | 1019.2 |
| 20260506152021 | 53 | 193 | 3.0 | 7.0 | 0.00 | 0.00 | 0.00 | 88 | 1019.2 |
| 20260506151541 | 53 | 146 | 3.0 | 6.0 | 0.00 | 0.00 | 0.00 | 88 | 1019.2 |
| 20260506151025 | 53 | 201 | 3.0 | 8.0 | 0.00 | 0.00 | 0.00 | 88 | 1019.1 |
| 20260506150525 | 53 | 180 | 4.0 | 10.0 | 0.00 | 0.00 | 0.00 | 88 | 1019.1 |
| 20260506150043 | 53 | 191 | 4.0 | 13.0 | 0.00 | 0.00 | 0.00 | 89 | 1018.9 |
| 20260506145522 | 53 | 141 | 7.0 | 15.0 | 0.00 | 0.00 | 0.00 | 89 | 1018.8 |
| 20260506145024 | 53 | 153 | 8.0 | 17.0 | 0.00 | 0.00 | 0.00 | 89 | 1018.7 |
| 20260506144558 | 53 | 108 | 10.0 | 17.0 | 0.00 | 0.00 | 0.00 | 89 | 1018.5 |
| 20260506144024 | 53 | 117 | 6.0 | 14.0 | 0.00 | 0.00 | 0.00 | 90 | 1018.5 |
| 20260506143521 | 53 | 146 | 5.0 | 10.0 | 0.00 | 0.00 | 0.00 | 89 | 1018.4 |
| 20260506143046 | 53 | 153 | 3.0 | 11.0 | 0.00 | 0.00 | 0.00 | 89 | 1018.5 |
| 20260506142525 | 53 | 160 | 3.0 | 13.0 | 0.00 | 0.00 | 0.00 | 90 | 1018.6 |
| 20260506142024 | 53 | 117 | 8.0 | 16.0 | 0.00 | 0.00 | 0.00 | 90 | 1018.6 |
| 20260506141543 | 53 | 127 | 9.0 | 16.0 | 0.00 | 0.00 | 0.00 | 89 | 1018.4 |
| 20260506141024 | 53 | 151 | 7.0 | 13.0 | 0.00 | 0.00 | 0.00 | 90 | 1018.3 |
| 20260506140524 | 53 | 140 | 7.0 | 13.0 | 0.00 | 0.00 | 0.00 | 90 | 1018.3 |
| 20260506140042 | 53 | 127 | 6.0 | 12.0 | 0.00 | 0.00 | 0.00 | 89 | 1018.4 |
| 20260506135523 | 53 | 166 | 4.0 | 11.0 | 0.00 | 0.00 | 0.00 | 89 | 1018.4 |
| 20260506135024 | 53 | 254 | 5.0 | 11.0 | 0.00 | 0.00 | 0.00 | 90 | 1018.3 |
| 20260506134540 | 53 | 130 | 6.0 | 11.0 | 0.00 | 0.00 | 0.00 | 90 | 1018.1 |
| 20260506134024 | 53 | 130 | 4.0 | 10.0 | 0.00 | 0.00 | 0.00 | 90 | 1018.3 |
| 20260506133524 | 53 | 127 | 4.0 | 10.0 | 0.00 | 0.00 | 0.00 | 90 | 1018.3 |
| 20260506133045 | 53 | 171 | 4.0 | 7.0 | 0.00 | 0.00 | 0.00 | 90 | 1018.3 |
| 20260506132529 | 53 | 164 | 4.0 | 9.0 | 0.00 | 0.00 | 0.00 | 90 | 1018.2 |
| 20260506132025 | 53 | 132 | 3.0 | 13.0 | 0.00 | 0.00 | 0.00 | 90 | 1018.1 |
| 20260506131545 | 53 | 138 | 3.0 | 13.0 | 0.00 | 0.00 | 0.00 | 90 | 1018.0 |
| 20260506131021 | 53 | 166 | 7.0 | 13.0 | 0.00 | 0.00 | 0.00 | 90 | 1017.8 |
| 20260506130522 | 53 | 146 | 7.0 | 11.0 | 0.00 | 0.00 | 0.00 | 90 | 1017.8 |
| 20260506130049 | 53 | 142 | 7.0 | 11.0 | 0.00 | 0.00 | 0.00 | 90 | 1017.7 |
| 20260506125525 | 53 | 244 | 5.0 | 11.0 | 0.00 | 0.00 | 0.00 | 90 | 1017.7 |
| 20260506125021 | 53 | 131 | 5.0 | 10.0 | 0.00 | 0.00 | 0.00 | 90 | 1017.6 |
| 20260506124545 | 54 | 158 | 4.0 | 12.0 | 0.00 | 0.00 | 0.00 | 91 | 1017.6 |
| 20260506124024 | 54 | 141 | 4.0 | 19.0 | 0.00 | 0.00 | 0.00 | 91 | 1017.7 |
| 20260506123524 | 53 | 131 | 9.0 | 19.0 | 0.00 | 0.00 | 0.00 | 90 | 1017.8 |
| 20260506123041 | 53 | 135 | 8.0 | 17.0 | 0.00 | 0.00 | 0.00 | 90 | 1017.7 |
| 20260506122522 | 53 | 146 | 7.0 | 11.0 | 0.00 | 0.00 | 0.00 | 90 | 1017.7 |
| 20260506122024 | 53 | 117 | 5.0 | 8.0 | 0.00 | 0.00 | 0.00 | 90 | 1017.6 |
| 20260506121540 | 53 | 141 | 4.0 | 9.0 | 0.00 | 0.00 | 0.00 | 91 | 1017.7 |
| 20260506121025 | 53 | 130 | 4.0 | 9.0 | 0.00 | 0.00 | 0.00 | 91 | 1017.9 |
| 20260506120525 | 53 | 205 | 3.0 | 8.0 | 0.00 | 0.00 | 0.00 | 92 | 1017.8 |
| 20260506120040 | 53 | 137 | 5.0 | 10.0 | 0.00 | 0.00 | 0.00 | 91 | 1017.7 |
| 20260506115524 | 53 | 120 | 6.0 | 10.0 | 0.00 | 0.00 | 0.00 | 91 | 1017.6 |
| 20260506115024 | 53 | 108 | 5.0 | 8.0 | 0.00 | 0.00 | 0.00 | 90 | 1017.6 |
| 20260506114537 | 53 | 131 | 5.0 | 8.0 | 0.00 | 0.00 | 0.00 | 91 | 1017.6 |
| 20260506114024 | 53 | 112 | 4.0 | 7.0 | 0.00 | 0.00 | 0.00 | 91 | 1017.5 |
| 20260506113521 | 53 | 144 | 4.0 | 12.0 | 0.00 | 0.00 | 0.00 | 91 | 1017.4 |
| 20260506113037 | 53 | 251 | 6.0 | 12.0 | 0.00 | 0.00 | 0.00 | 92 | 1017.4 |
| 20260506112521 | 53 | 125 | 8.0 | 12.0 | 0.00 | 0.00 | 0.00 | 92 | 1017.2 |
| 20260506112025 | 52 | 103 | 6.0 | 10.0 | 0.00 | 0.00 | 0.00 | 92 | 1017.1 |
| 20260506111543 | 52 | 136 | 5.0 | 12.0 | 0.00 | 0.00 | 0.00 | 91 | 1017.1 |
| 20260506111024 | 52 | 89 | 5.0 | 12.0 | 0.00 | 0.00 | 0.00 | 91 | 1016.9 |
| 20260506110521 | 53 | 75 | 6.0 | 12.0 | 0.00 | 0.00 | 0.00 | 91 | 1016.9 |
| 20260506110043 | 53 | 128 | 4.0 | 11.0 | 0.00 | 0.00 | 0.00 | 91 | 1017.1 |
| 20260506105526 | 53 | 139 | 6.0 | 11.0 | 0.00 | 0.00 | 0.00 | 91 | 1016.9 |
| 20260506105028 | 53 | 111 | 4.0 | 10.0 | 0.00 | 0.00 | 0.00 | 92 | 1017.0 |
| 20260506104547 | 53 | 129 | 5.0 | 10.0 | 0.00 | 0.00 | 0.00 | 93 | 1016.9 |
| 20260506104027 | 52 | 137 | 4.0 | 9.0 | 0.00 | 0.00 | 0.00 | 93 | 1016.8 |
| 20260506103523 | 52 | 142 | 5.0 | 10.0 | 0.00 | 0.00 | 0.00 | 93 | 1016.7 |
| 20260506103040 | 52 | 77 | 5.0 | 10.0 | 0.00 | 0.00 | 0.00 | 93 | 1016.5 |
| 20260506102525 | 52 | 107 | 4.0 | 7.0 | 0.00 | 0.00 | 0.00 | 93 | 1016.5 |
| 20260506102022 | 52 | 73 | 5.0 | 7.0 | 0.00 | 0.00 | 0.00 | 92 | 1016.4 |
| 20260506101537 | 52 | 110 | 3.0 | 6.0 | 0.00 | 0.00 | 0.00 | 92 | 1016.4 |
| 20260506101021 | 52 | 97 | 3.0 | 6.0 | 0.00 | 0.00 | 0.00 | 92 | 1016.3 |
| 20260506100524 | 53 | 82 | 3.0 | 7.0 | 0.00 | 0.00 | 0.00 | 92 | 1016.3 |
| 20260506100044 | 53 | 123 | 4.0 | 7.0 | 0.00 | 0.00 | 0.00 | 92 | 1016.4 |
| 20260506095521 | 52 | 100 | 4.0 | 9.0 | 0.00 | 0.00 | 0.00 | 92 | 1016.3 |
| 20260506095021 | 52 | 79 | 4.0 | 9.0 | 0.00 | 0.00 | 0.00 | 92 | 1016.3 |
| 20260506094546 | 52 | 68 | 4.0 | 6.0 | 0.00 | 0.00 | 0.00 | 92 | 1016.3 |
| 20260506094022 | 53 | 83 | 3.0 | 6.0 | 0.00 | 0.00 | 0.00 | 92 | 1016.2 |
| 20260506093522 | 53 | 102 | 4.0 | 6.0 | 0.00 | 0.00 | 0.00 | 92 | 1016.2 |
| 20260506093043 | 53 | 89 | 3.0 | 5.0 | 0.00 | 0.00 | 0.00 | 91 | 1016.1 |